Tatalina Lrrs Airport
PATL : now visible

Airfield :











YOU CAN JOIN US ON...

 
LOGIN :

Register | Disclaimer

   EN    FR    IT 

 









Legend :    VFR   Marginal VFR   IFR   Intensive IFR   Very Intensive IFR
Visi :
Ceiling :
>= 8 km
>= 3000ft
5 to 8 km
1000 to 3000 ft
1500m to 5 km
500 to 1000 ft
800 to 1500m
200 to 500 ft
< 800m
< 200 ft
Symbols :   Thunderstorms  Fog  Heavy snow  Heavy precipitations  Wind > 20 kt






- Airport Elevation : 964 ft
- IATA code : TLJ


PATL - Tatalina Lrrs

CURRENT METAR :
  • 151655Z AUTO VRB04KT 10SM SCT021 BKN100 M12/M14 A2918 RMK AO2 SLP910 T11231137

EXPIRED METARs :
  • 151555Z AUTO 03005KT 10SM OVC110 M12/M14 A2917 RMK AO2 SLP904 T11221139
  • 151455Z AUTO VRB04KT 10SM FEW022 BKN100 M12/M14 A2915 RMK AO2 SLP898 T11221138 52008

Expired Forecast.
PAZA FIR / North America



MET'MAP, your aeronautical weather chart ! - Copyright ORBIFLY December 2007 - Disclaimer

ORBIFLY MET'MAP TEAM :

Programming & Development : Alexandra Zaïnal
Concept & original design : Baudouin d'Aumeries
Assistance for programming : Marc-Olivier Méhu
Technical & hardware support : Manuel Goepfert

Contact : metmap@orbifly.com




SOURCES & CREDITS :

   NOAA       Earth
Advisory